This is the latest recevied weather packets stored in our database for station/object WZ9ZZZ-1. If no packets are shown the sender has not sent any weather packets the latest 10 day(s).
| Time | Temp. | Humidity | Pressure | Rain* | Wind** | Luminosity | Snow |
|---|---|---|---|---|---|---|---|
| 1778002205 | 25.56° C | 85% | 1013.5 hPa | 0 mm | - | 144 W/m² | - |
| 1778001903 | 25.56° C | 86% | 1013.8 hPa | 0 mm | - | 193 W/m² | - |
| 1778001597 | 25.56° C | 87% | 1013.7 hPa | 0 mm | - | 203 W/m² | - |
| 1778001293 | 25.56° C | 87% | 1013.9 hPa | 0 mm | - | 232 W/m² | - |
| 1778000990 | 25.56° C | 86% | 1013.7 hPa | 0 mm | - | 75 W/m² | - |
| 1778000687 | 25.56° C | 85% | 1013.9 hPa | 0 mm | - | 88 W/m² | - |
| 1778000382 | 25.56° C | 85% | 1013.8 hPa | 0 mm | - | 129 W/m² | - |
| 1778000078 | 25.56° C | 85% | 1013.9 hPa | 0 mm | - | 124 W/m² | - |
| 1777999774 | 25.56° C | 85% | 1013.6 hPa | 0 mm | - | 92 W/m² | - |
| 1777999471 | 26.11° C | 84% | 1013.6 hPa | 0 mm | - | 150 W/m² | - |
| 1777999169 | 26.11° C | 84% | 1013.7 hPa | 0 mm | - | 111 W/m² | - |
| 1777998867 | 26.11° C | 84% | 1013.8 hPa | 0 mm | - | 161 W/m² | - |
| 1777998566 | 25.56° C | 84% | 1013.8 hPa | 0 mm | - | 161 W/m² | - |
| 1777998261 | 26.11° C | 84% | 1013.6 hPa | 0 mm | - | 121 W/m² | - |
| 1777997959 | 26.11° C | 84% | 1013.7 hPa | 0 mm | - | 176 W/m² | - |
| 1777997655 | 25.56° C | 84% | 1013.7 hPa | 0 mm | - | 136 W/m² | - |
| 1777997353 | 25.56° C | 84% | 1013.4 hPa | 0 mm | - | 96 W/m² | - |
| 1777997051 | 25.56° C | 84% | 1013.5 hPa | 0 mm | - | 164 W/m² | - |
| 1777996747 | 25.56° C | 84% | 1013.6 hPa | 0 mm | - | 107 W/m² | - |
| 1777996443 | 25.56° C | 83% | 1013.4 hPa | 0 mm | - | 89 W/m² | - |
| 1777996140 | 25.56° C | 83% | 1013.6 hPa | 0 mm | - | 94 W/m² | - |
| 1777995836 | 25.56° C | 83% | 1013.6 hPa | 0 mm | - | 93 W/m² | - |
| 1777995532 | 25.56° C | 84% | 1013.4 hPa | 0 mm | - | 105 W/m² | - |
| 1777995229 | 25.56° C | 84% | 1013.3 hPa | 0 mm | - | 167 W/m² | - |
| 1777994926 | 25.56° C | 84% | 1013.3 hPa | 0 mm | - | 51 W/m² | - |
* Rain latest hour (hover to see other rain measurements)
** Current wind speed in m/s (hover to see current wind gust speed)